Flag for U.S.A. Weather past 2 weeks in Shiprock, New Mexico, U.S.A.

Now
63 °F

Light rain. Overcast.


Feels Like: 63 °F
Forecast: 59 / 81 °F
Wind: 7 mph from Southeast

Location: Four Corners Regional Airport

Current Time: Sep 22, 2014 at 8:49:13 AM

Latest Report: Sep 22, 2014 at 7:53 AM


Visibility: 10 mi

Pressure: 30.12 "Hg

Humidity: 81%

Dew point: 57 °F

Location of ShiprockLocation

Historic Weather in Shiprock — Graph

°F

Shiprock temperature yesterday

Maximum temperature yesterday: 83 °F (at 3:53 PM)
Minimum temperature yesterday: 63 °F (at 6:53 AM)
Average temperature yesterday: 73 °F

Past Weeks' High & Low Weather Summary

 TemperatureHumidityPressure
High89 °F (Sep 20, 5:53 PM)97% (Sep 10, 12:53 AM)30.15 "Hg (Sep 10, 12:53 AM)
Low47 °F (Sep 11, 6:53 AM)11% (Sep 12, 5:53 PM)29.77 "Hg (Sep 18, 5:53 PM)
Average69 °F47%29.98 "Hg
* Reported Sep 7 7:53 AM — Sep 22 7:53 AM, Shiprock, Weather by CustomWeather, © 2014

Note: Actual official high and low records may vary slightly from our data, if they occured in-between our weather recording intervals... More about our weather records

Advertising

Shiprock weather history for previous 24 hours

 ConditionsComfort  
Time TempWeatherWind HumidityBarometerVisibility
7:53 AM
Sep 22
63 °FLight rain. Overcast.7 mph81%30.12 "Hg10 mi
6:53 AM62 °FMostly cloudy.9 mph86%30.10 "Hg10 mi
5:53 AM62 °FOvercast.8 mph86%30.09 "Hg10 mi
4:53 AM62 °FMostly cloudy.7 mph86%30.09 "Hg10 mi
3:53 AM63 °FLight rain. Mostly cloudy.5 mph84%30.08 "Hg10 mi
2:53 AM62 °FPassing clouds.5 mph86%30.10 "Hg10 mi
1:53 AM63 °FLight rain. Mostly cloudy.5 mph84%30.10 "Hg10 mi
12:53 AM66 °FOvercast.5 mph65%30.07 "Hg10 mi
11:53 PM
Sep 21
66 °FPassing clouds.6 mph65%30.08 "Hg10 mi
10:53 PM67 °FPartly cloudy.3 mph59%30.06 "Hg10 mi
9:53 PM68 °FPassing clouds.5 mph59%30.07 "Hg10 mi
8:53 PM70 °FPassing clouds.9 mph49%30.05 "Hg10 mi
7:53 PM74 °FPassing clouds.10 mph43%30.01 "Hg10 mi
6:53 PM73 °FScattered clouds.6 mph55%30.02 "Hg10 mi
5:53 PM78 °FPassing clouds.No wind40%29.99 "Hg10 mi
4:53 PM80 °FBroken clouds.9 mph30%29.98 "Hg10 mi
3:53 PM83 °FSunny.12 mph27%29.97 "Hg10 mi
2:53 PM80 °FOvercast.12 mph29%29.98 "Hg10 mi
1:53 PM80 °FMore clouds than sun.12 mph28%30.00 "Hg10 mi
12:53 PM81 °FSunny.18 mph28%30.03 "Hg10 mi
11:53 AM76 °FScattered clouds.8 mph42%30.07 "Hg10 mi
10:53 AM76 °FPassing clouds.14 mph43%30.09 "Hg10 mi
9:53 AM73 °FSunny.14 mph51%30.09 "Hg10 mi
8:53 AM68 °FSunny.12 mph59%30.12 "Hg10 mi
Weather by CustomWeather, © 2014

See weather overviewHow to use our weather pages